| time (UTC) | temp F | wind direction | speed MPH | gust MPH | rain 1hr in | rain 24hr in | rain mn in | humidity % | barometer mb |
| 20260505124757 | 61 | 46 | 2.0 | 7.0 | 0.00 | 0.00 | 0.00 | 64 | 1010.3 |
| 20260505124257 | 63 | 86 | 2.0 | 7.0 | 0.00 | 0.00 | 0.00 | 61 | 1010.3 |
| 20260505123757 | 65 | 45 | 2.0 | 7.0 | 0.00 | 0.00 | 0.00 | 58 | 1010.4 |
| 20260505123257 | 65 | 82 | 2.0 | 7.0 | 0.00 | 0.00 | 0.00 | 62 | 1010.3 |
| 20260505121757 | 65 | 71 | 3.0 | 8.0 | 0.00 | 0.00 | 0.00 | 58 | 1010.4 |
| 20260505121257 | 66 | 23 | 3.0 | 9.0 | 0.00 | 0.00 | 0.00 | 60 | 1010.4 |
| 20260505120757 | 65 | 66 | 2.0 | 7.0 | 0.00 | 0.00 | 0.00 | 62 | 1010.4 |
| 20260505120257 | 64 | 71 | 2.0 | 7.0 | 0.00 | 0.00 | 0.00 | 58 | 1010.5 |
| 20260505114757 | 64 | 35 | 3.0 | 12.0 | 0.00 | 0.00 | 0.00 | 61 | 1010.5 |
| 20260505114258 | 62 | 102 | 2.0 | 7.0 | 0.00 | 0.00 | 0.00 | 67 | 1010.5 |
| 20260505113758 | 59 | 75 | 2.0 | 6.0 | 0.00 | 0.00 | 0.00 | 69 | 1010.6 |
| 20260505113257 | 60 | 76 | 2.0 | 7.0 | 0.00 | 0.00 | 0.00 | 63 | 1010.6 |
| 20260505111757 | 62 | 32 | 2.0 | 7.0 | 0.00 | 0.00 | 0.00 | 67 | 1010.6 |
| 20260505111257 | 58 | 28 | 2.0 | 7.0 | 0.00 | 0.00 | 0.00 | 67 | 1010.7 |
| 20260505110757 | 60 | 35 | 2.0 | 7.0 | 0.00 | 0.00 | 0.00 | 63 | 1010.7 |
| 20260505110258 | 62 | 20 | 2.0 | 8.0 | 0.00 | 0.00 | 0.00 | 57 | 1010.7 |
| 20260505101258 | 63 | 71 | 2.0 | 5.0 | 0.00 | 0.00 | 0.00 | 59 | 1010.9 |
| 20260505094758 | 62 | 87 | 3.0 | 9.0 | 0.00 | 0.00 | 0.00 | 64 | 1011.0 |
| 20260505094257 | 60 | 39 | 2.0 | 7.0 | 0.00 | 0.00 | 0.00 | 70 | 1011.1 |
| 20260505093758 | 57 | 23 | 3.0 | 9.0 | 0.00 | 0.00 | 0.00 | 70 | 1011.1 |
| 20260505091758 | 55 | 14 | 2.0 | 5.0 | 0.00 | 0.00 | 0.00 | 67 | 1011.2 |
| 20260505090758 | 59 | 20 | 2.0 | 6.0 | 0.00 | 0.00 | 0.00 | 64 | 1011.2 |
| 20260505084758 | 56 | 352 | 1.0 | 5.0 | 0.00 | 0.00 | 0.00 | 67 | 1011.2 |
| 20260505084258 | 59 | 22 | 2.0 | 7.0 | 0.00 | 0.00 | 0.00 | 63 | 1011.2 |
| 20260505083758 | 60 | 99 | 2.0 | 7.0 | 0.00 | 0.00 | 0.00 | 67 | 1011.1 |
| 20260505081758 | 56 | 39 | 3.0 | 7.0 | 0.00 | 0.00 | 0.00 | 71 | 1011.2 |
| 20260505081258 | 57 | 29 | 2.0 | 6.0 | 0.00 | 0.00 | 0.00 | 72 | 1011.2 |
| 20260505080758 | 55 | 24 | 2.0 | 7.0 | 0.00 | 0.00 | 0.00 | 77 | 1011.2 |
| 20260505080258 | 54 | 31 | 3.0 | 9.0 | 0.00 | 0.00 | 0.00 | 75 | 1011.2 |
| 20260505074759 | 52 | 54 | 3.0 | 10.0 | 0.00 | 0.00 | 0.00 | 76 | 1011.3 |
| 20260505074307 | 53 | 359 | 2.0 | 8.0 | 0.00 | 0.00 | 0.00 | 77 | 1011.3 |
| 20260505073258 | 54 | 10 | 2.0 | 7.0 | 0.00 | 0.00 | 0.00 | 77 | 1011.4 |
| 20260505071759 | 53 | 24 | 2.0 | 6.0 | 0.00 | 0.00 | 0.00 | 86 | 1011.3 |
| 20260505070758 | 49 | 31 | 2.0 | 6.0 | 0.00 | 0.00 | 0.00 | 89 | 1011.3 |
| 20260505064758 | 48 | 35 | 4.0 | 7.0 | 0.00 | 0.00 | 0.00 | 92 | 1011.4 |
| 20260505064259 | 47 | 26 | 5.0 | 7.0 | 0.00 | 0.00 | 0.00 | 92 | 1011.4 |
| 20260505063258 | 47 | 36 | 3.0 | 7.0 | 0.00 | 0.00 | 0.00 | 93 | 1011.5 |
| 20260505061758 | 47 | 47 | 3.0 | 7.0 | 0.00 | 0.00 | 0.00 | 93 | 1011.5 |
| 20260505060758 | 47 | 34 | 1.0 | 3.0 | 0.00 | 0.00 | 0.00 | 93 | 1011.4 |
| 20260505060258 | 46 | 21 | 1.0 | 5.0 | 0.00 | 0.00 | 0.00 | 93 | 1011.4 |
| 20260505054759 | 46 | 27 | 1.0 | 3.0 | 0.00 | 0.00 | 0.00 | 93 | 1011.4 |
| 20260505053758 | 45 | 5 | 1.0 | 6.0 | 0.00 | 0.00 | 0.00 | 93 | 1011.3 |
| 20260505053259 | 45 | 329 | 2.0 | 6.0 | 0.00 | 0.00 | 0.00 | 93 | 1011.4 |
| 20260505051758 | 44 | 352 | 0.0 | 3.0 | 0.00 | 0.00 | 0.00 | 93 | 1011.4 |
| 20260505051258 | 44 | 340 | 2.0 | 5.0 | 0.00 | 0.00 | 0.00 | 93 | 1011.3 |
| 20260505050759 | 44 | 357 | 0.0 | 2.0 | 0.00 | 0.00 | 0.00 | 93 | 1011.3 |
| 20260505050258 | 44 | 357 | 1.0 | 5.0 | 0.00 | 0.00 | 0.00 | 93 | 1011.2 |
| 20260505041258 | 42 | 311 | 1.0 | 2.0 | 0.00 | 0.00 | 0.00 | 93 | 1011.3 |
| 20260505040758 | 42 | 316 | 1.0 | 3.0 | 0.00 | 0.00 | 0.00 | 93 | 1011.2 |
| 20260505034758 | 41 | 338 | 1.0 | 3.0 | 0.00 | 0.00 | 0.00 | 92 | 1011.3 |
| 20260505034259 | 41 | 322 | 0.0 | 1.0 | 0.00 | 0.00 | 0.00 | 92 | 1011.3 |
| 20260505033800 | 41 | 321 | 0.0 | 1.0 | 0.00 | 0.00 | 0.00 | 92 | 1011.3 |
| 20260505033258 | 41 | 321 | 0.0 | 5.0 | 0.00 | 0.00 | 0.00 | 92 | 1011.3 |
| 20260505031259 | 41 | 343 | 1.0 | 5.0 | 0.00 | 0.00 | 0.00 | 92 | 1011.3 |
| 20260505030759 | 41 | 308 | 1.0 | 5.0 | 0.00 | 0.00 | 0.00 | 92 | 1011.3 |
| 20260505030259 | 41 | 307 | 0.0 | 5.0 | 0.00 | 0.00 | 0.00 | 92 | 1011.3 |
| 20260505024259 | 41 | 306 | 1.0 | 3.0 | 0.00 | 0.00 | 0.00 | 91 | 1011.4 |
| 20260505023259 | 41 | 319 | 1.0 | 5.0 | 0.00 | 0.00 | 0.00 | 91 | 1011.4 |
| 20260505021800 | 41 | 5 | 1.0 | 3.0 | 0.00 | 0.00 | 0.00 | 91 | 1011.5 |
| 20260505021259 | 41 | 358 | 1.0 | 3.0 | 0.00 | 0.00 | 0.00 | 91 | 1011.5 |
| 20260505020300 | 41 | 1 | 1.0 | 3.0 | 0.00 | 0.00 | 0.00 | 91 | 1011.5 |
| 20260505014759 | 41 | 321 | 1.0 | 6.0 | 0.00 | 0.00 | 0.00 | 90 | 1011.5 |
| 20260505013800 | 41 | 297 | 0.0 | 2.0 | 0.00 | 0.00 | 0.00 | 91 | 1011.6 |
| 20260505013259 | 42 | 292 | 0.0 | 3.0 | 0.00 | 0.00 | 0.00 | 90 | 1011.6 |
| 20260505011800 | 42 | 291 | 0.0 | 3.0 | 0.00 | 0.00 | 0.00 | 90 | 1011.7 |
| 20260505011300 | 42 | 282 | 2.0 | 5.0 | 0.00 | 0.00 | 0.00 | 90 | 1011.6 |
| 20260505010759 | 42 | 277 | 1.0 | 3.0 | 0.00 | 0.00 | 0.00 | 90 | 1011.6 |
| 20260505010259 | 42 | 276 | 1.0 | 3.0 | 0.00 | 0.00 | 0.00 | 90 | 1011.7 |
| 20260505004759 | 42 | 277 | 2.0 | 3.0 | 0.00 | 0.00 | 0.00 | 90 | 1011.7 |
| 20260505004259 | 42 | 258 | 1.0 | 3.0 | 0.00 | 0.00 | 0.00 | 90 | 1011.7 |
| 20260505003800 | 42 | 261 | 1.0 | 3.0 | 0.00 | 0.00 | 0.00 | 90 | 1011.7 |
| 20260505003300 | 42 | 262 | 1.0 | 5.0 | 0.00 | 0.00 | 0.00 | 89 | 1011.8 |
| 20260505001759 | 43 | 253 | 1.0 | 2.0 | 0.00 | 0.00 | 0.00 | 89 | 1011.7 |
| 20260505001259 | 43 | 254 | 1.0 | 3.0 | 0.00 | 0.00 | 0.00 | 89 | 1011.8 |
| 20260505000800 | 43 | 276 | 1.0 | 3.0 | 0.00 | 0.00 | 0.00 | 89 | 1011.8 |
| 20260505000300 | 43 | 270 | 2.0 | 5.0 | 0.00 | 0.00 | 0.00 | 88 | 1011.8 |
| 20260504234800 | 43 | 260 | 2.0 | 5.0 | 0.00 | 0.00 | 0.00 | 88 | 1011.9 |
| 20260504234300 | 44 | 249 | 1.0 | 2.0 | 0.00 | 0.00 | 0.00 | 88 | 1011.9 |
| 20260504233800 | 44 | 244 | 2.0 | 5.0 | 0.00 | 0.00 | 0.00 | 89 | 1012.0 |
| 20260504233300 | 44 | 244 | 2.0 | 6.0 | 0.00 | 0.00 | 0.00 | 88 | 1012.0 |
| 20260504231759 | 44 | 241 | 0.0 | 3.0 | 0.00 | 0.00 | 0.00 | 88 | 1012.0 |
| 20260504231259 | 44 | 244 | 1.0 | 3.0 | 0.00 | 0.00 | 0.00 | 88 | 1012.0 |
| 20260504230800 | 44 | 237 | 1.0 | 2.0 | 0.00 | 0.00 | 0.00 | 88 | 1012.0 |
| 20260504230259 | 44 | 236 | 1.0 | 6.0 | 0.00 | 0.00 | 0.00 | 88 | 1012.0 |
| 20260504224800 | 44 | 258 | 2.0 | 3.0 | 0.00 | 0.00 | 0.00 | 87 | 1012.1 |
| 20260504224301 | 44 | 265 | 2.0 | 3.0 | 0.00 | 0.00 | 0.00 | 87 | 1012.1 |
| 20260504223800 | 44 | 280 | 3.0 | 7.0 | 0.00 | 0.00 | 0.00 | 87 | 1012.2 |
| 20260504223300 | 44 | 242 | 1.0 | 5.0 | 0.00 | 0.00 | 0.00 | 87 | 1012.2 |
| 20260504221800 | 45 | 241 | 1.0 | 3.0 | 0.00 | 0.00 | 0.00 | 86 | 1012.3 |
| 20260504220759 | 45 | 238 | 1.0 | 5.0 | 0.00 | 0.00 | 0.00 | 85 | 1012.3 |
| 20260504220300 | 45 | 253 | 1.0 | 3.0 | 0.00 | 0.00 | 0.00 | 85 | 1012.3 |
| 20260504214800 | 45 | 251 | 2.0 | 7.0 | 0.00 | 0.00 | 0.00 | 85 | 1012.5 |
| 20260504213800 | 46 | 248 | 2.0 | 5.0 | 0.00 | 0.00 | 0.00 | 84 | 1012.6 |
| 20260504213300 | 46 | 254 | 2.0 | 7.0 | 0.00 | 0.00 | 0.00 | 84 | 1012.6 |
| 20260504211800 | 46 | 277 | 2.0 | 5.0 | 0.00 | 0.00 | 0.00 | 84 | 1012.5 |
| 20260504211301 | 46 | 308 | 1.0 | 6.0 | 0.00 | 0.00 | 0.00 | 84 | 1012.4 |
| 20260504210800 | 46 | 260 | 2.0 | 5.0 | 0.00 | 0.00 | 0.00 | 83 | 1012.4 |
| 20260504210300 | 46 | 265 | 3.0 | 7.0 | 0.00 | 0.00 | 0.00 | 83 | 1012.3 |
| 20260504204800 | 47 | 204 | 1.0 | 2.0 | 0.00 | 0.00 | 0.00 | 82 | 1012.2 |
| 20260504203801 | 47 | 269 | 3.0 | 9.0 | 0.00 | 0.01 | 0.00 | 81 | 1012.2 |
| 20260504203301 | 47 | 259 | 1.0 | 6.0 | 0.00 | 0.01 | 0.00 | 81 | 1012.2 |
| 20260504201800 | 48 | 264 | 1.0 | 3.0 | 0.00 | 0.02 | 0.00 | 80 | 1012.2 |
| 20260504201300 | 48 | 262 | 1.0 | 7.0 | 0.00 | 0.02 | 0.00 | 79 | 1012.1 |
| 20260504200801 | 48 | 255 | 1.0 | 7.0 | 0.00 | 0.02 | 0.00 | 79 | 1012.2 |
| 20260504200300 | 48 | 201 | 1.0 | 7.0 | 0.00 | 0.02 | 0.00 | 78 | 1012.2 |
| 20260504194801 | 49 | 269 | 1.0 | 7.0 | 0.00 | 0.07 | 0.00 | 77 | 1012.0 |
| 20260504194301 | 49 | 295 | 1.0 | 6.0 | 0.00 | 0.07 | 0.00 | 76 | 1012.0 |
| 20260504193800 | 50 | 119 | 2.0 | 7.0 | 0.00 | 0.07 | 0.00 | 76 | 1011.9 |
| 20260504193300 | 50 | 200 | 2.0 | 7.0 | 0.00 | 0.07 | 0.00 | 76 | 1011.9 |
| 20260504191801 | 51 | 272 | 1.0 | 3.0 | 0.00 | 0.07 | 0.00 | 74 | 1011.9 |
| 20260504190800 | 51 | 276 | 3.0 | 7.0 | 0.00 | 0.08 | 0.00 | 74 | 1011.8 |
| 20260504190300 | 52 | 245 | 3.0 | 8.0 | 0.00 | 0.08 | 0.00 | 73 | 1011.8 |
| 20260504184800 | 52 | 247 | 3.0 | 6.0 | 0.00 | 0.09 | 0.00 | 74 | 1011.8 |
| 20260504184301 | 53 | 244 | 2.0 | 3.0 | 0.00 | 0.09 | 0.00 | 73 | 1011.6 |
| 20260504183800 | 53 | 241 | 3.0 | 6.0 | 0.00 | 0.09 | 0.00 | 73 | 1011.6 |
| 20260504183301 | 53 | 237 | 1.0 | 7.0 | 0.00 | 0.09 | 0.00 | 73 | 1011.6 |
| 20260504181801 | 54 | 240 | 3.0 | 7.0 | 0.00 | 0.12 | 0.00 | 73 | 1011.6 |
| 20260504181300 | 54 | 246 | 2.0 | 5.0 | 0.00 | 0.13 | 0.00 | 72 | 1011.6 |
| 20260504180800 | 54 | 263 | 1.0 | 5.0 | 0.00 | 0.16 | 0.00 | 72 | 1011.6 |
| 20260504180301 | 54 | 251 | 3.0 | 7.0 | 0.00 | 0.17 | 0.00 | 72 | 1011.6 |
| 20260504174801 | 55 | 230 | 5.0 | 7.0 | 0.00 | 0.28 | 0.00 | 71 | 1011.5 |
| 20260504174301 | 55 | 276 | 4.0 | 8.0 | 0.00 | 0.31 | 0.00 | 71 | 1011.5 |
| 20260504173801 | 55 | 251 | 3.0 | 5.0 | 0.00 | 0.39 | 0.00 | 72 | 1011.5 |
| 20260504173301 | 55 | 252 | 5.0 | 8.0 | 0.00 | 0.40 | 0.00 | 72 | 1011.5 |
| 20260504171800 | 56 | 237 | 3.0 | 7.0 | 0.00 | 0.57 | 0.00 | 71 | 1011.5 |
| 20260504171301 | 56 | 258 | 1.0 | 7.0 | 0.00 | 0.73 | 0.00 | 71 | 1011.5 |
| 20260504170301 | 57 | 248 | 3.0 | 7.0 | 0.00 | 0.93 | 0.00 | 71 | 1011.5 |
| 20260504160301 | 60 | 223 | 5.0 | 9.0 | 0.00 | 0.94 | 0.00 | 65 | 1011.5 |
| 20260504150801 | 62 | 241 | 3.0 | 10.0 | 0.00 | 0.94 | 0.00 | 62 | 1011.8 |
| 20260504141301 | 61 | 245 | 5.0 | 10.0 | 0.00 | 0.94 | 0.00 | 62 | 1011.9 |
| 20260504140801 | 63 | 276 | 6.0 | 9.0 | 0.00 | 0.94 | 0.00 | 62 | 1011.9 |
| 20260504140302 | 63 | 249 | 3.0 | 9.0 | 0.00 | 0.94 | 0.00 | 65 | 1012.0 |
| 20260504130801 | 60 | 245 | 7.0 | 15.0 | 0.00 | 0.94 | 0.00 | 67 | 1012.0 |
| 20260504130302 | 60 | 253 | 4.0 | 13.0 | 0.00 | 0.94 | 0.00 | 67 | 1012.0 |